This demonstration page uses our WeatherBlox Daily Observations layout. Learn more.

Left ArrowRight Arrow

Hourly Observations for September 29, 2019

Temp ( °F °C ) Dew Point ( °F °C ) Humidity (%) Winds ( mph kmh ) Pressure ( in mb ) Visibility ( mi km ) Precip ( " mm )
12:59 am 00:59 Partly Cloudy 79 26.1 69 20.6 72 72 SW 7 11 30.11 1020 10 16 0.00 0.00
1:59 am 01:59 Partly Cloudy 78 25.6 70 21.1 76 76 WSW 8 13 30.11 1020 10 16 0.00 0.00
2:59 am 02:59 Clear 77 25 69 20.6 77 77 SW 6 9 30.11 1020 10 16 0.00 0.00
3:59 am 03:59 Clear 77 25 69 20.6 77 77 WSW 5 7 30.11 1020 10 16 0.00 0.00
4:59 am 04:59 Clear 76 24.4 69 20.6 79 79 W 3 6 30.11 1020 10 16 0.00 0.00
5:59 am 05:59 Mostly Clear 75 23.9 70 21.1 84 84 Calm 30.13 1020 10 16 0.00 0.00
6:59 am 06:59 Mostly Sunny 73 22.8 70 21.1 90 90 Calm 30.14 1021 10 16 0.00 0.00
7:59 am 07:59 Mostly Sunny 78 25.6 72 22.2 82 82 NW 6 9 30.15 1021 8 13 0.00 0.00
8:59 am 08:59 Sunny 80 26.7 72 22.2 76 76 N 6 9 30.17 1022 8 13 0.00 0.00
9:59 am 09:59 Sunny 81 27.2 72 22.2 74 74 N 10 17 30.19 1022 8 13 0.00 0.00
10:59 am 10:59 Sunny 82 27.8 74 23.3 77 77 N 13 20 30.19 1022 8 13 0.00 0.00
11:59 am 11:59 Mostly Sunny 81 27.2 74 23.3 79 79 NNE 13 20 30.20 1023 7 11 0.00 0.00
12:37 pm 12:37 Mostly Cloudy with Haze 81 27.2 74 23.3 79 79 NNE 12 19 30.20 1023 6 10 0.00 0.00
12:59 pm 12:59 Mostly Cloudy 82 27.8 75 23.9 79 79 NE 12 19 30.20 1023 7 11 0.00 0.00
1:59 pm 13:59 Mostly Cloudy 82 27.8 74 23.3 77 77 ENE 10 17 30.19 1022 8 13 0.00 0.00
2:59 pm 14:59 Cloudy 80 26.7 75 23.9 85 85 NE 13 20 30.19 1022 7 11 0.00 0.00
3:28 pm 15:28 Cloudy 80 26.7 72 22.2 76 76 ENE 12 19 30.19 1022 9 14 0.00 0.00
3:59 pm 15:59 Cloudy 80 26.7 72 22.2 76 76 ENE 10 17 30.19 1022 9 14 0.00 0.00
4:59 pm 16:59 Partly Cloudy 79 26.1 72 22.2 79 79 ENE 13 20 30.18 1022 9 14 0.00 0.00
5:59 pm 17:59 Partly Cloudy 76 24.4 70 21.1 82 82 E 15 24 30.19 1022 9 14 0.00 0.00
6:35 pm 18:35 Mostly Cloudy 75 23.9 70 21.1 84 84 ENE 14 22 30.19 1022 9 14 0.00 0.00
6:59 pm 18:59 Mostly Cloudy 75 23.9 69 20.6 82 82 ENE 17 28 30.19 1023 10 16 0.00 0.00
7:59 pm 19:59 Mostly Cloudy 74 23.3 69 20.6 85 85 E 14 22 30.21 1023 10 16 0.00 0.00
8:46 pm 20:46 Partly Cloudy 74 23.3 69 20.6 85 85 ENE 14 22 30.22 1023 10 16 0.00 0.00
8:59 pm 20:59 Partly Cloudy 74 23.3 69 20.6 85 85 E 14 22 30.23 1024 10 16 0.00 0.00
9:59 pm 21:59 Mostly Cloudy 73 22.8 69 20.6 87 87 E 10 17 30.24 1024 10 16 0.00 0.00
10:59 pm 22:59 Cloudy 73 22.8 69 20.6 87 87 E 10 17 30.24 1024 10 16 0.00 0.00
11:59 pm 23:59 Partly Cloudy 73 22.8 69 20.6 87 87 E 7 11 30.23 1024 10 16 0.00 0.00

Powered by AerisWeather